Location: Murphys Corner
(39.1062°N, 77.8244°W)
Time: 17:23:55
(UTC+00:00)

Tiangong - Visible Passes

Search period start: 15 June 2024 00:00
Search period end: 25 June 2024 00:00
Orbit: 380 x 385 km, 41.5° (Epoch: 14 June)

Date Brightness Start Highest point End Pass type
(mag) Time Alt. Az. Time Alt. Az. Time Alt. Az.
15 Jun -2.2 01:45:22 10° WNW 01:48:32 77° SSW 01:50:36 20° ESE visible
16 Jun -1.0 02:21:58 10° W 02:24:45 28° SSW 02:24:59 28° SSW visible
17 Jun -1.7 01:21:21 10° W 01:24:25 48° SSW 01:27:13 12° SE visible
18 Jun -0.1 01:58:18 10° WSW 02:00:26 17° SSW 02:01:36 14° S visible
